This demonstration page uses our WeatherBlox Daily Observations layout. Learn more.

38.88101, -77.10428

Hourly Observations for March 5, 2016

Temp ( °F °C ) Dew Point ( °F °C ) Humidity (%) Winds ( mph kmh ) Pressure ( in mb ) Visibility ( mi km ) Precip ( " mm )
12:52 am 00:52 Mostly Cloudy 39 3.9 25 -3.9 57 57 NNW 6 9 30.18 1022 10 16.0934 0 0
1:52 am 01:52 Cloudy 38 3.3 24 -4.4 57 57 NNW 9 15 30.19 1022 10 16.0934 0 0
2:52 am 02:52 Cloudy 38 3.3 22 -5.6 52 52 NW 12 19 30.19 1022 10 16.0934 0 0
3:52 am 03:52 Cloudy 39 3.9 21 -6.1 48 48 NW 9 15 30.2 1023 10 16.0934 0 0
4:52 am 04:52 Cloudy 36 2.2 24 -4.4 62 62 E 9 15 30.21 1023 10 16.0934 0 0
5:52 am 05:52 Cloudy 36 2.2 21 -6.1 55 55 ENE 9 15 30.21 1023 10 16.0934 0 0
6:52 am 06:52 Cloudy 35 1.7 20 -6.7 54 54 ENE 8 13 30.23 1024 10 16.0934 0 0
7:52 am 07:52 Cloudy 35 1.7 21 -6.1 57 57 ENE 8 13 30.26 1025 10 16.0934 0 0
8:52 am 08:52 Cloudy 36 2.2 21 -6.1 55 55 ENE 6 9 30.27 1025 10 16.0934 0 0
9:52 am 09:52 Mostly Cloudy 38 3.3 22 -5.6 52 52 ENE 6 9 30.24 1024 10 16.0934 0 0
10:52 am 10:52 Cloudy 38 3.3 21 -6.1 51 51 Calm 30.24 1024 10 16.0934 0 0
11:52 am 11:52 Cloudy 39 3.9 22 -5.6 50 50 Calm 30.22 1024 10 16.0934 0 0
12:52 pm 12:52 Cloudy 41 5 23 -5 49 49 SSE 5 7 30.2 1023 10 16.0934 0 0
1:21 pm 13:21 Cloudy 42 5.6 24 -4.4 49 49 SSE 8 13 30.18 1022 10 16.0934 0 0
1:52 pm 13:52 Mostly Cloudy 43 6.1 24 -4.4 47 47 SSE 10 17 30.17 1022 10 16.0934 0 0
2:52 pm 14:52 Cloudy 45 7.2 27 -2.8 49 49 S 15 24 30.16 1021 10 16.0934 0 0
3:52 pm 15:52 Cloudy 44 6.7 26 -3.3 49 49 S 10 17 30.14 1021 10 16.0934 0 0
4:52 pm 16:52 Cloudy 43 6.1 26 -3.3 51 51 SSW 7 11 30.15 1021 10 16.0934 0 0
5:52 pm 17:52 Mostly Cloudy 42 5.6 27 -2.8 55 55 S 10 17 30.15 1021 10 16.0934 0 0
6:52 pm 18:52 Mostly Clear 41 5 28 -2.2 60 60 S 8 13 30.17 1022 10 16.0934 0 0
7:52 pm 19:52 Partly Cloudy 39 3.9 27 -2.8 62 62 SSE 7 11 30.18 1022 10 16.0934 0 0
8:52 pm 20:52 Mostly Clear 38 3.3 27 -2.8 65 65 ESE 5 7 30.19 1022 10 16.0934 0 0
9:52 pm 21:52 Mostly Cloudy 37 2.8 27 -2.8 67 67 SSE 5 7 30.2 1023 10 16.0934 0 0
10:52 pm 22:52 Cloudy 37 2.8 27 -2.8 67 67 SSE 7 11 30.2 1023 10 16.0934 0 0
11:52 pm 23:52 Cloudy 37 2.8 28 -2.2 70 70 S 5 7 30.2 1023 10 16.0934 0 0

Powered by AerisWeather